STARLINK-36816, 67891

Orbit data source: Space-Track

STARLINK-36816, 67891 is a payload satellite owned by SpaceX/Seattle (US) in SSO that was launched on Sat, 21 Feb 2026 UTC via an FALCON 9 launch vehicle from the Air Force Western Test Range (AFWTR). Payload-class satellites include a variety of spacecraft equipped with specific instruments for various scientific and technological missions. These include communications satellites like Starlink; space stations such as the ISS; scientific satellites like the Hubble; Earth observation satellites from companies like Planet Labs, Umbra, and HawkEye 360; GPS; miniature CubeSats for education and research; and military/defense satellites.

Loading next visibility...
Identifier
67891, 2026-035N
Orbit
SSO
Country
Flag of USUS
Related business
Manufacturer
SpaceX/Seattle
Mission
Operational Commercial Communications
Bus & Motor
STARLINK V2MO, Unknown motor
Mass
575 kg wet, ~530 kg dry
Launch date (UTC)
2026-02-21 (4 months ago)
Launch vehicle
FALCON 9
Launch site
Air Force Western Test Range (AFWTR)
Object type
Payload
Rocket body
Debris
Shape & HBR
Box + 2 Pan, 17.7 m
Radar Cross Section
36.964 m², Large (>1 m²)

Expand to show TLE details & history
Last TLE update: 12 hours ago

TLE from 12 hours ago
0 STARLINK-36816
1 67891U 26035N   26171.39861139  .00005742  00000-0  18002-3 0  9996
2 67891  97.2827 103.5717 0002754  81.8034 278.3521 15.33445433 19669
Epoch: 2026-06-20T09:34Z
TLE epoch observation values (Epoch: 2026-06-20T09:34:00.024Z)
Latitude
-0°
Longitude
51.4578°
Altitude
468.381 km
Speed
7.632 km/s
True Right ascension
06h 54m 17s
True Declination
0° 00' 00"
Sunlit
Object was in daylight at epoch
Visualization orbit readout
Latitude
Unknown
Longitude
Unknown
Altitude
Unknown
Speed
Unknown
Apparent Right ascension
Unknown
Apparent Declination
Unknown
Sunlit
N/A
Visualization observer readout
Local Sidereal Time
08:33:31
Azimuth
Unknown
Elevation
Unknown
Doppler factor
Unknown
Orbital elements
Apogee altitude
464.368 km
Perigee altitude
460.601 km
Semi-major axis
6,840.622 km
Eccentricity
0.00028
Inclination
97.2827°
RAAN
103.5717°
Arg. of periapsis
81.8034°
True anomaly
278.32087°
Mean anomaly
278.3521°
Eccentric anomaly
278.33649°
Mean motion
3.83619 °/min
Orbital period
93.84 mins
BSTAR
0.00018002
Loading maneuver chart data...
Computing Atmospheric mass density...
Loading historical data...
Loading historical data...
Loading historical data...
Loading historical data...
Loading historical data...
Loading historical data...
Loading historical data...

Documentation

Showing up to 5 results
|